contact:dominique.lefevre@mio.osupytheas.fr, maurice.libes@osupytheas.fr, didier.mallarino@osupytheas.fr
Project:EMSO http://www.emso-fr.org/EMSO-France
Depth: 2436.0 m
Title:EMSO Ligure Ouest : Data MII capteur AQUADOPP
Date,Latitude,Longitude,X_East,Y_North,Z_Up,Amplitude_X,Amplitude_Y,Amplitude_Z,Batterie,SoundSpeed,Heading,Pitch,Roll,Pressure,TIS,Speed,Direction
, degrees North, degrees East, m.s-1, m.s-1,m.s-1, 1, 1, 1, Volt, m.s-1, degree, degree, degree, dbar, degree_C, m.s-1, degree
2022-07-23T00:04:03,42.805,6.029,0.055,-0.017,-0.017,103.0,102.0,101.0,13.4,1505.2,321.1,-0.8,1.8,2470.952,13.28,0.057,107.2
2022-07-23T00:07:03,42.805,6.029,0.048,-0.016,-0.037,102.0,103.0,101.0,13.4,1505.2,324.0,-0.8,1.8,2470.947,13.28,0.05,108.4
2022-07-23T00:10:03,42.805,6.029,0.059,-0.005,-0.022,103.0,104.0,100.0,13.3,1505.2,323.8,-0.7,1.8,2470.954,13.28,0.059,94.8
2022-07-23T00:13:03,42.805,6.029,0.048,-0.017,-0.025,102.0,103.0,101.0,13.4,1505.2,322.6,-0.7,1.8,2470.972,13.28,0.05,109.5
2022-07-23T00:16:03,42.805,6.029,0.021,0.007,-0.01,103.0,105.0,100.0,13.4,1505.2,327.3,-0.7,1.8,2470.952,13.28,0.022,71.6
2022-07-23T00:19:03,42.805,6.029,0.051,-0.018,-0.042,101.0,103.0,101.0,13.4,1505.2,327.0,-0.8,1.9,2470.919,13.28,0.054,109.4
2022-07-23T00:22:03,42.805,6.029,0.041,0.007,-0.011,101.0,102.0,101.0,13.4,1505.2,326.9,-0.8,1.8,2470.915,13.28,0.041,80.3
2022-07-23T00:25:03,42.805,6.029,0.045,0.015,-0.001,102.0,102.0,102.0,13.4,1505.2,324.0,-0.7,1.8,2470.918,13.28,0.047,71.6
2022-07-23T00:28:03,42.805,6.029,0.024,0.011,0.005,103.0,102.0,100.0,13.4,1505.2,325.8,-0.7,1.8,2470.908,13.28,0.026,65.4
2022-07-23T00:31:03,42.805,6.029,0.034,-0.006,-0.005,102.0,102.0,101.0,13.4,1505.2,325.1,-0.8,1.8,2470.93,13.28,0.034,100.0
2022-07-23T00:34:03,42.805,6.029,0.037,0.006,-0.014,102.0,103.0,101.0,13.4,1505.2,319.8,-0.8,1.8,2470.949,13.28,0.037,80.8
2022-07-23T00:37:03,42.805,6.029,0.036,-0.005,-0.016,102.0,102.0,101.0,13.3,1505.2,324.4,-0.8,1.8,2470.974,13.28,0.036,97.9
2022-07-23T00:40:03,42.805,6.029,0.039,-0.01,-0.016,101.0,101.0,101.0,13.3,1505.2,322.6,-0.8,1.8,2470.951,13.28,0.04,104.4
2022-07-23T00:43:03,42.805,6.029,0.039,-0.004,-0.028,103.0,102.0,99.0,13.3,1505.2,328.2,-0.8,1.8,2470.972,13.28,0.039,95.9
2022-07-23T00:46:03,42.805,6.029,0.064,-0.02,0.001,102.0,103.0,100.0,13.4,1505.2,325.8,-0.8,1.8,2470.945,13.28,0.067,107.4
2022-07-23T00:49:03,42.805,6.029,0.04,-0.014,-0.018,102.0,104.0,100.0,13.4,1505.2,324.4,-0.8,1.8,2470.952,13.28,0.042,109.3
2022-07-23T00:52:03,42.805,6.029,0.029,-0.006,-0.018,102.0,101.0,101.0,13.3,1505.2,321.5,-0.8,1.8,2470.925,13.28,0.029,101.7
2022-07-23T00:55:03,42.805,6.029,0.043,-0.027,-0.034,104.0,102.0,101.0,13.3,1505.2,329.1,-0.8,1.8,2470.927,13.28,0.05,122.1
2022-07-23T00:58:03,42.805,6.029,0.047,-0.013,-0.017,102.0,102.0,100.0,13.4,1505.2,326.4,-0.8,1.9,2470.91,13.28,0.048,105.5
2022-07-23T01:04:03,42.805,6.029,0.03,-0.001,-0.016,103.0,104.0,104.0,13.4,1505.2,326.5,-0.8,1.8,2471.017,13.28,0.03,91.9
2022-07-23T01:07:03,42.805,6.029,0.039,-0.01,-0.006,103.0,103.0,100.0,13.3,1505.2,323.1,-0.8,1.8,2470.989,13.28,0.04,104.4
2022-07-23T01:10:03,42.805,6.029,0.048,-0.001,0.012,101.0,103.0,100.0,13.4,1505.2,331.9,-0.8,1.8,2471.029,13.28,0.048,91.2
2022-07-23T01:13:03,42.805,6.029,0.047,-0.007,-0.012,102.0,102.0,102.0,13.4,1505.2,322.0,-0.8,1.8,2470.987,13.28,0.047,98.5
2022-07-23T01:16:03,42.805,6.029,0.036,0.01,-0.037,104.0,101.0,100.0,13.4,1505.2,324.2,-0.8,1.8,2470.979,13.28,0.037,74.5
2022-07-23T01:19:03,42.805,6.029,0.021,0.007,-0.035,102.0,102.0,101.0,13.4,1505.2,329.0,-0.8,1.8,2470.951,13.28,0.022,71.6
2022-07-23T01:22:03,42.805,6.029,0.038,0.021,0.01,103.0,103.0,101.0,13.4,1505.2,319.5,-0.8,1.8,2470.969,13.28,0.043,61.1
2022-07-23T01:25:03,42.805,6.029,0.042,-0.002,-0.019,102.0,101.0,101.0,13.4,1505.2,319.7,-0.8,1.8,2470.94,13.28,0.042,92.7
2022-07-23T01:28:03,42.805,6.029,0.052,0.022,0.013,102.0,104.0,101.0,13.3,1505.2,320.6,-0.7,1.8,2470.952,13.28,0.056,67.1
2022-07-23T01:31:03,42.805,6.029,0.043,0.011,0.0,103.0,102.0,100.0,13.4,1505.2,321.0,-0.7,1.9,2470.938,13.28,0.044,75.7
2022-07-23T01:34:03,42.805,6.029,0.048,-0.006,-0.028,102.0,103.0,100.0,13.4,1505.2,324.9,-0.7,1.8,2470.973,13.28,0.048,97.1
2022-07-23T01:37:03,42.805,6.029,0.045,-0.001,-0.011,102.0,103.0,101.0,13.3,1505.2,328.2,-0.7,1.8,2470.949,13.28,0.045,91.3
2022-07-23T01:40:03,42.805,6.029,0.053,-0.004,-0.035,103.0,102.0,100.0,13.3,1505.2,320.2,-0.8,1.8,2470.931,13.28,0.053,94.3
2022-07-23T01:43:03,42.805,6.029,0.05,-0.006,-0.016,102.0,102.0,101.0,13.4,1505.2,325.5,-0.8,1.8,2470.919,13.28,0.05,96.8
2022-07-23T01:46:03,42.805,6.029,0.049,0.003,0.04,103.0,103.0,101.0,13.4,1505.2,327.8,-0.8,1.8,2470.963,13.28,0.049,86.5
2022-07-23T01:49:03,42.805,6.029,0.048,0.021,-0.002,102.0,104.0,101.0,13.4,1505.2,320.1,-0.8,1.8,2470.959,13.28,0.052,66.4
2022-07-23T01:52:03,42.805,6.029,0.047,0.002,-0.022,103.0,103.0,100.0,13.4,1505.2,330.8,-0.8,1.8,2470.945,13.28,0.047,87.6
2022-07-23T01:55:03,42.805,6.029,0.066,0.001,-0.017,102.0,104.0,100.0,13.4,1505.2,324.1,-0.7,1.8,2470.961,13.28,0.066,89.1
2022-07-23T01:58:03,42.805,6.029,0.059,-0.01,-0.011,102.0,102.0,101.0,13.3,1505.2,333.1,-0.7,1.8,2470.977,13.28,0.059,99.6
2022-07-23T02:04:03,42.805,6.029,0.044,-0.018,-0.036,102.0,102.0,101.0,13.4,1505.2,325.0,-0.8,1.8,2470.973,13.28,0.047,112.2
2022-07-23T02:07:03,42.805,6.029,0.041,-0.008,-0.018,102.0,103.0,100.0,13.4,1505.2,328.1,-0.7,1.8,2470.994,13.28,0.041,101.0
2022-07-23T02:10:03,42.805,6.029,0.024,-0.033,-0.039,103.0,102.0,100.0,13.3,1505.2,332.6,-0.8,1.8,2470.947,13.28,0.04,144.0
2022-07-23T02:13:03,42.805,6.029,0.025,0.014,0.003,102.0,102.0,102.0,13.4,1505.2,328.6,-0.8,1.8,2470.979,13.28,0.028,60.7
2022-07-23T02:16:03,42.805,6.029,0.057,-0.024,-0.008,103.0,103.0,101.0,13.3,1505.2,330.2,-0.8,1.8,2470.986,13.28,0.061,112.8
2022-07-23T02:19:03,42.805,6.029,0.045,0.026,0.002,102.0,103.0,100.0,13.3,1505.2,320.1,-0.8,1.8,2470.975,13.28,0.051,60.0
2022-07-23T02:22:03,42.805,6.029,0.028,0.008,-0.027,103.0,104.0,100.0,13.4,1505.2,327.4,-0.8,1.8,2470.959,13.28,0.029,74.1
2022-07-23T02:25:03,42.805,6.029,0.051,0.002,-0.01,103.0,103.0,100.0,13.3,1505.2,327.3,-0.7,1.8,2471.001,13.28,0.051,87.8
2022-07-23T02:28:03,42.805,6.029,0.03,0.0,-0.007,103.0,102.0,99.0,13.4,1505.2,323.3,-0.7,1.8,2470.914,13.28,0.03,90.0
2022-07-23T02:31:03,42.805,6.029,0.044,0.003,0.005,102.0,104.0,99.0,13.4,1505.2,321.1,-0.7,1.8,2470.954,13.28,0.044,86.1
2022-07-23T02:34:03,42.805,6.029,0.051,0.009,-0.01,102.0,102.0,101.0,13.3,1505.2,323.4,-0.8,1.8,2470.951,13.28,0.051,80.0
2022-07-23T02:37:03,42.805,6.029,0.06,-0.008,-0.014,102.0,104.0,101.0,13.4,1505.2,325.4,-0.8,1.9,2470.955,13.28,0.06,97.6
2022-07-23T02:40:03,42.805,6.029,0.041,-0.006,-0.012,103.0,102.0,99.0,13.4,1505.2,330.1,-0.8,1.8,2470.99,13.28,0.041,98.3
2022-07-23T02:43:03,42.805,6.029,0.062,0.0,-0.008,103.0,104.0,99.0,13.4,1505.2,325.2,-0.8,1.8,2470.963,13.28,0.061,90.0
2022-07-23T02:46:03,42.805,6.029,0.052,0.001,-0.021,101.0,104.0,101.0,13.3,1505.2,329.9,-0.7,1.8,2470.981,13.28,0.052,88.9
2022-07-23T02:49:03,42.805,6.029,0.065,0.006,-0.007,103.0,104.0,100.0,13.4,1505.2,328.5,-0.7,1.8,2470.982,13.28,0.065,84.7
2022-07-23T02:52:03,42.805,6.029,0.055,-0.014,-0.032,103.0,103.0,100.0,13.3,1505.2,326.6,-0.8,1.8,2470.959,13.28,0.056,104.3
2022-07-23T02:55:03,42.805,6.029,0.052,0.003,-0.003,102.0,103.0,101.0,13.4,1505.2,322.6,-0.8,1.8,2470.982,13.28,0.052,86.7
2022-07-23T02:58:03,42.805,6.029,0.068,-0.014,0.013,103.0,102.0,100.0,13.3,1505.2,327.2,-0.8,1.8,2470.953,13.28,0.069,101.6
2022-07-23T03:04:03,42.805,6.029,0.046,0.005,-0.038,102.0,103.0,100.0,13.4,1505.2,323.0,-0.7,1.8,2470.978,13.28,0.046,83.8
2022-07-23T03:07:03,42.805,6.029,0.063,0.012,0.016,102.0,103.0,101.0,13.4,1505.2,327.6,-0.8,1.8,2470.987,13.28,0.064,79.2
2022-07-23T03:10:03,42.805,6.029,0.085,-0.028,-0.037,103.0,103.0,99.0,13.4,1505.2,326.4,-0.8,1.8,2471.005,13.28,0.089,108.2
2022-07-23T03:13:03,42.805,6.029,0.038,-0.009,-0.018,102.0,104.0,100.0,13.4,1505.2,329.5,-0.8,1.8,2471.022,13.28,0.039,103.3
2022-07-23T03:16:03,42.805,6.029,0.064,0.011,0.01,102.0,102.0,102.0,13.4,1505.2,322.1,-0.7,1.8,2470.977,13.28,0.064,80.2
2022-07-23T03:19:03,42.805,6.029,0.035,-0.003,-0.03,104.0,102.0,100.0,13.4,1505.2,326.4,-0.8,1.8,2470.977,13.28,0.035,94.9
2022-07-23T03:22:03,42.805,6.029,0.055,0.003,-0.044,102.0,103.0,101.0,13.3,1505.2,320.8,-0.8,1.8,2470.966,13.28,0.055,86.9
2022-07-23T03:25:03,42.805,6.029,0.02,0.007,-0.018,102.0,103.0,99.0,13.4,1505.2,322.2,-0.7,1.8,2470.958,13.28,0.021,70.7
2022-07-23T03:28:03,42.805,6.029,0.06,0.009,0.003,100.0,104.0,102.0,13.4,1505.2,322.6,-0.8,1.8,2470.991,13.28,0.06,81.5
2022-07-23T03:31:03,42.805,6.029,0.042,0.017,-0.004,102.0,103.0,100.0,13.4,1505.2,326.9,-0.8,1.8,2470.972,13.28,0.045,68.0
2022-07-23T03:34:03,42.805,6.029,0.046,0.003,-0.022,101.0,104.0,101.0,13.4,1505.2,329.0,-0.8,1.8,2470.976,13.28,0.046,86.3
2022-07-23T03:37:03,42.805,6.029,0.049,-0.013,-0.023,102.0,101.0,101.0,13.4,1505.2,329.6,-0.7,1.8,2470.924,13.28,0.05,104.9
2022-07-23T03:40:03,42.805,6.029,0.039,-0.015,-0.013,101.0,103.0,101.0,13.4,1505.2,325.8,-0.8,1.8,2470.972,13.28,0.041,111.0
2022-07-23T03:43:03,42.805,6.029,0.033,-0.013,-0.029,104.0,101.0,102.0,13.4,1505.2,330.3,-0.8,1.8,2470.941,13.28,0.035,111.5
2022-07-23T03:46:03,42.805,6.029,0.052,-0.005,-0.025,102.0,102.0,101.0,13.4,1505.2,323.7,-0.7,1.8,2470.981,13.28,0.052,95.5
2022-07-23T03:49:03,42.805,6.029,0.098,0.0,-0.02,103.0,103.0,100.0,13.4,1505.2,326.9,-0.7,1.8,2470.943,13.28,0.098,90.0
2022-07-23T03:52:03,42.805,6.029,0.076,-0.005,-0.007,102.0,103.0,101.0,13.3,1505.2,332.4,-0.8,1.8,2470.948,13.28,0.076,93.8
2022-07-23T03:55:03,42.805,6.029,0.045,-0.016,0.011,101.0,103.0,102.0,13.4,1505.2,333.9,-0.7,1.8,2470.967,13.28,0.047,109.6
2022-07-23T03:58:03,42.805,6.029,0.032,0.009,-0.017,103.0,102.0,101.0,13.4,1505.2,322.7,-0.8,1.8,2470.944,13.28,0.033,74.3
2022-07-23T04:04:03,42.805,6.029,0.045,-0.003,0.0,103.0,103.0,101.0,13.4,1505.2,332.1,-0.7,1.8,2470.999,13.28,0.045,93.8
2022-07-23T04:07:03,42.805,6.029,0.051,0.01,0.004,103.0,102.0,101.0,13.4,1505.2,327.1,-0.8,1.8,2470.972,13.28,0.051,78.9
2022-07-23T04:10:03,42.805,6.029,0.054,-0.018,-0.012,103.0,103.0,101.0,13.3,1505.2,328.7,-0.8,1.8,2470.992,13.28,0.056,108.4
2022-07-23T04:13:03,42.805,6.029,0.074,0.008,-0.027,102.0,103.0,101.0,13.4,1505.2,326.7,-0.8,1.8,2470.959,13.28,0.074,83.8
2022-07-23T04:16:03,42.805,6.029,0.058,-0.01,0.028,101.0,103.0,100.0,13.4,1505.2,325.7,-0.8,1.8,2470.969,13.28,0.058,99.8
2022-07-23T04:19:03,42.805,6.029,0.059,-0.006,-0.005,100.0,104.0,101.0,13.4,1505.2,320.6,-0.8,1.8,2470.96,13.28,0.059,95.8
2022-07-23T04:22:03,42.805,6.029,0.094,-0.016,0.018,103.0,102.0,101.0,13.4,1505.2,326.1,-0.7,1.9,2470.956,13.28,0.095,99.7
2022-07-23T04:25:03,42.805,6.029,0.052,-0.01,-0.022,102.0,104.0,101.0,13.4,1505.2,329.2,-0.8,1.8,2470.944,13.28,0.052,100.9
2022-07-23T04:28:03,42.805,6.029,0.033,0.0,-0.017,103.0,101.0,101.0,13.4,1505.2,329.6,-0.8,1.8,2470.975,13.28,0.033,90.0
2022-07-23T04:31:03,42.805,6.029,0.055,-0.011,-0.009,102.0,102.0,101.0,13.3,1505.2,326.7,-0.7,1.8,2470.965,13.28,0.056,101.3
2022-07-23T04:34:03,42.805,6.029,0.04,0.007,-0.042,102.0,103.0,101.0,13.4,1505.2,322.7,-0.8,1.8,2470.929,13.28,0.04,80.1
2022-07-23T04:37:03,42.805,6.029,0.044,0.021,-0.002,101.0,103.0,102.0,13.4,1505.2,324.6,-0.8,1.8,2470.959,13.28,0.048,64.5
2022-07-23T04:40:03,42.805,6.029,0.036,0.0,-0.005,102.0,101.0,101.0,13.4,1505.2,322.6,-0.7,1.8,2470.964,13.28,0.036,90.0
2022-07-23T04:43:03,42.805,6.029,0.068,0.016,0.002,102.0,102.0,102.0,13.4,1505.2,323.3,-0.8,1.9,2470.964,13.28,0.069,76.8
2022-07-23T04:46:03,42.805,6.029,0.04,0.037,0.016,102.0,104.0,101.0,13.3,1505.2,319.8,-0.8,1.8,2470.951,13.28,0.054,47.2
2022-07-23T04:49:03,42.805,6.029,0.059,-0.009,0.015,101.0,104.0,101.0,13.4,1505.2,323.6,-0.7,1.8,2470.971,13.28,0.059,98.7
2022-07-23T04:52:03,42.805,6.029,0.057,-0.011,-0.018,102.0,103.0,101.0,13.3,1505.2,328.1,-0.8,1.9,2470.936,13.28,0.058,100.9
2022-07-23T04:55:03,42.805,6.029,0.062,0.0,-0.018,102.0,102.0,101.0,13.4,1505.2,319.7,-0.7,1.8,2470.967,13.28,0.061,90.0
2022-07-23T04:58:03,42.805,6.029,0.04,-0.023,-0.038,103.0,102.0,101.0,13.4,1505.2,328.0,-0.8,1.8,2470.937,13.28,0.046,119.9
2022-07-23T05:04:03,42.805,6.029,0.025,0.004,0.006,101.0,102.0,101.0,13.3,1505.2,324.7,-0.8,1.8,2470.96,13.28,0.025,80.9
2022-07-23T05:07:03,42.805,6.029,0.034,-0.014,-0.03,102.0,102.0,101.0,13.3,1505.2,325.4,-0.7,1.8,2471.021,13.28,0.036,112.4
2022-07-23T05:10:03,42.805,6.029,0.051,-0.01,-0.023,102.0,103.0,100.0,13.4,1505.2,325.5,-0.8,1.8,2470.965,13.28,0.051,101.1
2022-07-23T05:13:03,42.805,6.029,0.06,0.0,-0.028,101.0,103.0,101.0,13.3,1505.2,328.6,-0.8,1.8,2470.989,13.28,0.06,90.0
2022-07-23T05:16:03,42.805,6.029,0.058,-0.001,0.007,102.0,103.0,101.0,13.4,1505.2,323.6,-0.8,1.8,2470.945,13.28,0.058,91.0
2022-07-23T05:19:03,42.805,6.029,0.048,-0.012,-0.005,102.0,103.0,101.0,13.3,1505.2,328.4,-0.8,1.8,2470.932,13.28,0.049,104.0
2022-07-23T05:22:03,42.805,6.029,0.044,-0.004,0.002,101.0,102.0,101.0,13.4,1505.2,328.1,-0.8,1.8,2470.964,13.28,0.044,95.2
2022-07-23T05:25:03,42.805,6.029,0.04,0.01,-0.004,102.0,102.0,101.0,13.4,1505.2,327.9,-0.8,1.8,2470.935,13.28,0.041,76.0
2022-07-23T05:28:03,42.805,6.029,0.054,-0.022,-0.039,103.0,103.0,101.0,13.3,1505.2,319.1,-0.8,1.9,2470.95,13.28,0.058,112.2
2022-07-23T05:31:03,42.805,6.029,0.05,-0.004,-0.031,101.0,105.0,102.0,13.4,1505.2,331.0,-0.7,1.8,2470.969,13.28,0.05,94.6
2022-07-23T05:34:03,42.805,6.029,0.075,0.001,-0.001,102.0,103.0,101.0,13.4,1505.2,326.0,-0.7,1.8,2470.942,13.28,0.075,89.2
2022-07-23T05:37:03,42.805,6.029,0.049,0.004,0.005,102.0,103.0,100.0,13.3,1505.2,328.1,-0.7,1.8,2470.927,13.28,0.049,85.3
2022-07-23T05:40:03,42.805,6.029,0.061,-0.02,-0.007,101.0,103.0,102.0,13.4,1505.2,328.8,-0.8,1.8,2470.926,13.28,0.064,108.1
2022-07-23T05:43:03,42.805,6.029,0.051,0.003,-0.007,103.0,102.0,100.0,13.4,1505.2,322.9,-0.7,1.8,2470.95,13.28,0.051,86.6
2022-07-23T05:46:03,42.805,6.029,0.063,0.015,-0.023,102.0,104.0,100.0,13.4,1505.2,318.5,-0.8,1.8,2470.961,13.28,0.064,76.6
2022-07-23T05:49:03,42.805,6.029,0.069,-0.02,-0.033,102.0,103.0,101.0,13.3,1505.2,321.9,-0.8,1.8,2470.97,13.28,0.071,106.2
2022-07-23T05:52:03,42.805,6.029,0.037,-0.032,-0.032,100.0,103.0,101.0,13.4,1505.2,329.8,-0.8,1.9,2470.918,13.28,0.048,130.9
2022-07-23T05:55:03,42.805,6.029,0.042,-0.009,-0.023,102.0,103.0,100.0,13.4,1505.2,321.1,-0.8,1.8,2470.935,13.28,0.042,102.1
2022-07-23T05:58:03,42.805,6.029,0.05,-0.011,-0.026,102.0,102.0,101.0,13.4,1505.2,330.5,-0.8,1.8,2470.918,13.28,0.051,102.4
2022-07-23T06:04:03,42.805,6.029,0.032,0.003,0.005,102.0,105.0,100.0,13.4,1505.2,322.3,-0.8,1.8,2471.001,13.28,0.032,84.6
2022-07-23T06:07:03,42.805,6.029,0.054,-0.009,-0.04,102.0,102.0,100.0,13.3,1505.2,319.8,-0.8,1.8,2470.924,13.28,0.054,99.5
2022-07-23T06:10:03,42.805,6.029,0.071,-0.016,-0.012,103.0,102.0,100.0,13.4,1505.2,328.0,-0.8,1.8,2470.946,13.28,0.072,102.7
2022-07-23T06:13:03,42.805,6.029,0.053,-0.003,-0.015,102.0,101.0,101.0,13.3,1505.2,319.8,-0.7,1.8,2470.945,13.28,0.053,93.2
2022-07-23T06:16:03,42.805,6.029,0.057,-0.026,-0.019,103.0,101.0,101.0,13.3,1505.2,331.3,-0.8,1.8,2470.937,13.28,0.062,114.5
2022-07-23T06:19:03,42.805,6.029,0.053,-0.01,0.002,101.0,104.0,101.0,13.4,1505.2,328.5,-0.8,1.8,2470.945,13.28,0.053,100.7
2022-07-23T06:22:03,42.805,6.029,0.048,-0.015,-0.038,102.0,102.0,100.0,13.4,1505.2,330.5,-0.7,1.8,2470.948,13.28,0.05,107.4
2022-07-23T06:25:03,42.805,6.029,0.047,-0.01,-0.015,101.0,103.0,102.0,13.4,1505.2,327.9,-0.8,1.8,2470.934,13.28,0.048,102.0
2022-07-23T06:28:03,42.805,6.029,0.04,-0.009,-0.003,103.0,102.0,101.0,13.4,1505.2,327.8,-0.8,1.8,2470.924,13.28,0.041,102.7
2022-07-23T06:31:03,42.805,6.029,0.041,-0.013,-0.036,103.0,102.0,101.0,13.4,1505.2,328.3,-0.7,1.8,2470.903,13.28,0.043,107.6
2022-07-23T06:34:03,42.805,6.029,0.045,-0.015,-0.035,101.0,103.0,101.0,13.4,1505.2,323.6,-0.7,1.8,2470.918,13.28,0.047,108.4
2022-07-23T06:37:03,42.805,6.029,0.045,0.003,-0.001,102.0,104.0,101.0,13.4,1505.2,330.8,-0.8,1.8,2470.935,13.28,0.045,86.2
2022-07-23T06:40:03,42.805,6.029,0.027,-0.02,-0.073,100.0,103.0,101.0,13.4,1505.2,329.0,-0.8,1.8,2470.913,13.28,0.033,126.5
2022-07-23T06:43:03,42.805,6.029,0.06,-0.026,0.001,102.0,102.0,101.0,13.4,1505.2,333.1,-0.7,1.8,2470.887,13.28,0.065,113.4
2022-07-23T06:46:03,42.805,6.029,0.051,-0.016,-0.029,103.0,102.0,101.0,13.4,1505.2,327.1,-0.8,1.8,2470.92,13.28,0.053,107.4
2022-07-23T06:49:03,42.805,6.029,0.041,-0.012,0.0,102.0,103.0,101.0,13.4,1505.2,327.8,-0.8,1.8,2470.909,13.28,0.042,106.3
2022-07-23T06:52:03,42.805,6.029,0.059,-0.002,-0.016,102.0,102.0,100.0,13.4,1505.2,325.7,-0.8,1.8,2470.919,13.28,0.059,91.9
2022-07-23T06:55:03,42.805,6.029,0.065,-0.017,0.003,102.0,102.0,101.0,13.4,1505.2,331.7,-0.8,1.8,2470.892,13.28,0.067,104.7
2022-07-23T06:58:03,42.805,6.029,0.044,0.008,-0.019,101.0,103.0,101.0,13.4,1505.2,328.9,-0.8,1.8,2470.885,13.28,0.044,79.7
2022-07-23T07:04:03,42.805,6.029,0.055,-0.016,-0.002,103.0,104.0,100.0,13.4,1505.2,327.3,-0.8,1.9,2470.953,13.28,0.057,106.2
2022-07-23T07:07:03,42.805,6.029,0.076,-0.018,-0.016,102.0,102.0,102.0,13.4,1505.2,325.4,-0.8,1.9,2470.944,13.28,0.078,103.3
2022-07-23T07:10:03,42.805,6.029,0.033,-0.012,-0.005,102.0,102.0,100.0,13.4,1505.2,323.0,-0.8,1.8,2470.887,13.28,0.035,110.0
2022-07-23T07:13:03,42.805,6.029,0.055,-0.007,-0.036,102.0,102.0,101.0,13.4,1505.2,329.9,-0.8,1.8,2470.93,13.28,0.055,97.3
2022-07-23T07:16:03,42.805,6.029,0.034,-0.001,-0.013,103.0,102.0,101.0,13.3,1505.2,330.8,-0.7,1.8,2470.93,13.28,0.034,91.7
2022-07-23T07:19:03,42.805,6.029,0.046,0.011,-0.025,101.0,101.0,102.0,13.3,1505.2,320.0,-0.7,1.8,2470.935,13.28,0.047,76.6
2022-07-23T07:22:03,42.805,6.029,0.04,-0.001,-0.014,102.0,103.0,101.0,13.4,1505.2,322.2,-0.8,1.8,2470.92,13.28,0.04,91.4
2022-07-23T07:25:03,42.805,6.029,0.045,-0.034,0.004,102.0,104.0,99.0,13.3,1505.2,332.4,-0.7,1.8,2470.914,13.28,0.056,127.1
2022-07-23T07:28:03,42.805,6.029,0.049,-0.008,-0.015,102.0,102.0,101.0,13.3,1505.2,322.8,-0.7,1.8,2470.923,13.28,0.049,99.3
2022-07-23T07:31:03,42.805,6.029,0.054,-0.007,-0.024,102.0,102.0,101.0,13.4,1505.2,321.1,-0.8,1.8,2470.902,13.28,0.054,97.4
2022-07-23T07:34:03,42.805,6.029,0.045,-0.004,-0.008,102.0,102.0,101.0,13.4,1505.2,323.6,-0.7,1.8,2470.841,13.28,0.045,95.1
2022-07-23T07:37:03,42.805,6.029,0.074,-0.003,-0.022,103.0,102.0,101.0,13.3,1505.2,325.3,-0.8,1.9,2470.89,13.28,0.074,92.3
2022-07-23T07:40:03,42.805,6.029,0.06,-0.039,-0.005,102.0,102.0,100.0,13.3,1505.2,333.6,-0.7,1.8,2470.936,13.28,0.071,123.0
2022-07-23T07:43:03,42.805,6.029,0.036,-0.01,-0.024,101.0,102.0,100.0,13.4,1505.2,327.8,-0.8,1.8,2470.895,13.28,0.037,105.5
2022-07-23T07:46:03,42.805,6.029,0.066,0.0,-0.022,102.0,103.0,101.0,13.3,1505.2,331.1,-0.8,1.8,2470.894,13.28,0.065,90.0
2022-07-23T07:49:03,42.805,6.029,0.049,-0.011,-0.032,102.0,103.0,100.0,13.3,1505.2,321.5,-0.7,1.8,2470.882,13.28,0.05,102.7
2022-07-23T07:52:03,42.805,6.029,0.066,-0.02,-0.027,102.0,103.0,101.0,13.4,1505.2,322.2,-0.8,1.8,2470.857,13.28,0.068,106.9
2022-07-23T07:55:03,42.805,6.029,0.038,-0.006,-0.015,102.0,102.0,101.0,13.4,1505.2,323.6,-0.8,1.8,2470.886,13.28,0.038,99.0
2022-07-23T07:58:03,42.805,6.029,0.059,-0.003,-0.008,102.0,103.0,101.0,13.4,1505.2,328.2,-0.8,1.8,2470.882,13.28,0.059,92.9
2022-07-23T08:04:03,42.805,6.029,0.055,0.0,0.002,102.0,104.0,101.0,13.3,1505.2,328.1,-0.8,1.8,2470.905,13.28,0.055,90.0
2022-07-23T08:07:03,42.805,6.029,0.05,-0.035,-0.03,103.0,104.0,99.0,13.4,1505.2,326.6,-0.8,1.8,2470.938,13.28,0.061,125.0
2022-07-23T08:10:03,42.805,6.029,0.057,-0.011,-0.015,103.0,103.0,101.0,13.4,1505.2,319.8,-0.7,1.8,2470.92,13.28,0.058,100.9
2022-07-23T08:13:03,42.805,6.029,0.066,-0.025,0.012,103.0,102.0,100.0,13.4,1505.2,326.0,-0.7,1.8,2470.867,13.28,0.07,110.7
2022-07-23T08:16:03,42.805,6.029,0.061,-0.003,-0.007,103.0,103.0,101.0,13.3,1505.2,323.9,-0.8,1.8,2470.903,13.28,0.061,92.8
2022-07-23T08:19:03,42.805,6.029,0.052,-0.01,-0.023,103.0,102.0,100.0,13.3,1505.2,330.1,-0.8,1.9,2470.88,13.28,0.052,100.9
2022-07-23T08:22:03,42.805,6.029,0.054,0.002,-0.016,102.0,104.0,101.0,13.3,1505.2,331.5,-0.8,1.9,2470.847,13.28,0.054,87.9
2022-07-23T08:25:03,42.805,6.029,0.039,-0.005,-0.037,102.0,101.0,101.0,13.4,1505.2,323.5,-0.7,1.8,2470.88,13.28,0.039,97.3
2022-07-23T08:28:03,42.805,6.029,0.035,-0.02,-0.027,103.0,102.0,100.0,13.3,1505.2,326.6,-0.8,1.8,2470.868,13.28,0.04,119.7
2022-07-23T08:31:03,42.805,6.029,0.064,-0.017,-0.03,104.0,102.0,101.0,13.3,1505.2,326.1,-0.7,1.8,2470.859,13.28,0.066,104.9
2022-07-23T08:34:03,42.805,6.029,0.072,-0.015,-0.018,103.0,101.0,100.0,13.4,1505.2,321.5,-0.7,1.8,2470.841,13.28,0.073,101.8
2022-07-23T08:37:03,42.805,6.029,0.076,-0.015,-0.036,100.0,103.0,101.0,13.4,1505.2,325.5,-0.8,1.8,2470.873,13.28,0.077,101.2
2022-07-23T08:40:03,42.805,6.029,0.034,-0.009,-0.048,102.0,103.0,101.0,13.3,1505.2,319.5,-0.8,1.8,2470.916,13.28,0.035,104.8
2022-07-23T08:43:03,42.805,6.029,0.049,-0.012,-0.023,102.0,101.0,101.0,13.4,1505.2,326.5,-0.7,1.8,2470.876,13.28,0.05,103.8
2022-07-23T08:46:03,42.805,6.029,0.058,-0.001,-0.013,102.0,101.0,102.0,13.4,1505.2,328.3,-0.8,1.8,2470.852,13.28,0.058,91.0
2022-07-23T08:49:03,42.805,6.029,0.06,-0.009,-0.019,102.0,104.0,101.0,13.3,1505.2,326.7,-0.7,1.8,2470.875,13.28,0.06,98.5
2022-07-23T08:52:03,42.805,6.029,0.042,-0.01,-0.037,103.0,102.0,100.0,13.3,1505.2,327.9,-0.7,1.8,2470.889,13.28,0.043,103.4
2022-07-23T08:55:03,42.805,6.029,0.046,-0.008,-0.025,103.0,102.0,100.0,13.4,1505.2,318.9,-0.8,1.8,2470.851,13.28,0.046,99.9
2022-07-23T08:58:03,42.805,6.029,0.046,0.006,-0.008,102.0,102.0,102.0,13.4,1505.2,322.7,-0.7,1.8,2470.847,13.28,0.046,82.6
2022-07-23T09:04:03,42.805,6.029,0.031,-0.001,-0.017,103.0,102.0,100.0,13.4,1505.2,326.0,-0.8,1.8,2470.912,13.28,0.031,91.8
2022-07-23T09:07:03,42.805,6.029,0.039,-0.018,-0.005,102.0,103.0,101.0,13.3,1505.2,329.9,-0.8,1.8,2470.879,13.28,0.042,114.8
2022-07-23T09:10:03,42.805,6.029,0.043,0.006,-0.009,103.0,102.0,101.0,13.4,1505.2,328.5,-0.8,1.8,2470.878,13.28,0.043,82.1
2022-07-23T09:13:03,42.805,6.029,0.036,0.011,0.0,101.0,104.0,99.0,13.4,1505.2,330.3,-0.8,1.9,2470.906,13.28,0.037,73.0
2022-07-23T09:16:03,42.805,6.029,0.033,-0.021,0.001,102.0,102.0,100.0,13.4,1505.2,333.1,-0.8,1.8,2470.876,13.28,0.039,122.5
2022-07-23T09:19:03,42.805,6.029,0.021,-0.004,-0.029,102.0,102.0,101.0,13.4,1505.2,330.0,-0.8,1.8,2470.917,13.28,0.021,100.8
2022-07-23T09:22:03,42.805,6.029,0.066,-0.005,-0.033,102.0,102.0,101.0,13.4,1505.2,324.6,-0.8,1.9,2470.877,13.28,0.066,94.3
2022-07-23T09:25:03,42.805,6.029,0.031,-0.007,-0.031,102.0,103.0,100.0,13.3,1505.2,323.6,-0.7,1.9,2470.914,13.28,0.031,102.7
2022-07-23T09:28:03,42.805,6.029,0.061,-0.022,-0.005,102.0,103.0,100.0,13.4,1505.2,328.6,-0.8,1.8,2470.892,13.28,0.064,109.8
2022-07-23T09:31:03,42.805,6.029,0.042,-0.011,0.017,102.0,102.0,100.0,13.4,1505.2,324.5,-0.8,1.9,2470.871,13.28,0.043,104.7
2022-07-23T09:34:03,42.805,6.029,0.037,-0.004,-0.02,102.0,102.0,101.0,13.3,1505.2,321.0,-0.8,1.8,2470.874,13.28,0.037,96.2
2022-07-23T09:37:03,42.805,6.029,0.071,0.0,0.006,102.0,102.0,100.0,13.4,1505.2,322.9,-0.8,1.8,2470.876,13.28,0.07,90.0
2022-07-23T09:40:03,42.805,6.029,0.044,0.0,-0.021,102.0,103.0,101.0,13.4,1505.2,332.9,-0.7,1.8,2470.866,13.28,0.044,90.0
2022-07-23T09:43:03,42.805,6.029,0.058,-0.014,-0.01,102.0,103.0,100.0,13.4,1505.2,323.1,-0.8,1.8,2470.877,13.28,0.059,103.6
2022-07-23T09:46:03,42.805,6.029,0.036,-0.012,-0.038,102.0,102.0,101.0,13.4,1505.2,320.0,-0.8,1.8,2470.845,13.28,0.037,108.4
2022-07-23T09:49:03,42.805,6.029,0.034,0.008,-0.019,103.0,100.0,101.0,13.3,1505.2,330.8,-0.7,1.8,2470.798,13.28,0.034,76.8
2022-07-23T09:52:03,42.805,6.029,0.048,-0.012,-0.016,101.0,102.0,100.0,13.4,1505.2,320.6,-0.8,1.8,2470.832,13.28,0.049,104.0
2022-07-23T09:55:03,42.805,6.029,0.071,0.002,0.012,101.0,103.0,100.0,13.4,1505.2,326.4,-0.7,1.8,2470.862,13.28,0.071,88.4
2022-07-23T09:58:03,42.805,6.029,0.054,-0.022,-0.025,102.0,103.0,101.0,13.3,1505.2,323.7,-0.8,1.8,2470.882,13.28,0.058,112.2